Aeroporto :
LOGIN :

Iscrizione | Disclaimer

   EN    FR    IT 

 










Sommario :    VFR   VFR Marginale   IFR   IFR Intensivo   IFR Molto Intensivo
Visibilità : 
Base nubi : 
>= 8 km
>= 3000ft
5 / 8 km
1000 / 3000 ft
1500m / 5 km
500 / 1000 ft
800 / 1500m
200 / 500 ft
< 800m
< 200 ft
Simboli :   Temporali  Nebbia  Neve Forte  Precipitazioni Forti  Vento > 20 kt
SIGMETs :   Varie  Temporali  Ghiacco  Turbolenza  Onda orograficha  Ceneri Vulcaniche







- Altitudine del aeroporto : 13 ft
- Codice IATA : CAG


LIEE - Cagliari Elmas

ULTIMO METAR :
  • 172220Z 32009KT CAVOK 23/17 Q1013

METARs OBSOLETI :
  • 172150Z 34010KT CAVOK 23/17 Q1013
  • 172120Z 35010KT CAVOK 23/17 Q1013
  • 172050Z 01011KT CAVOK 24/17 Q1013
  • 172020Z 36010KT CAVOK 24/16 Q1013
  • 171950Z 36011KT CAVOK 25/14 Q1012

TAF TAF LIEE
Valido dal 17 a 18 ore il 18 a 18 ore UTC


171700Z 1718/1818 33008KT 9999 FEW030
BECMG 1810/1812 17012KT
Nessun NOTAM noto per questo aeroporto.



MetMap, La meteo Aeronautica in un colpo d'occhio ! - Copyright ORBIFLY Dicembre 2007 - Disclaimer

ORBIFLY MET'MAP TEAM :

Programmazione e sviluppo : Alexandra Zaïnal
Concezione e sviluppo : Baudouin d'Aumeries
Co-Programmazione e sviluppo : Marc-Olivier Méhu
Supporto tecnico e logistico : Manuel Goepfert
Aiuto per la traduzione : Arnaldo La Scala

Contatto : metmap@orbifly.com




FONTI E CREDITI :

   NOAA